Meteo Giornale » Osservazioni meteo Italia » Verona-Villafranca

ore: 22:50 - Osservazioni Meteo Verona-Villafranca
Lat. 45° 23' N Lon. 10° 52' E Alt. 67 metri s.l.m.

poco_nuvoloso Europe/Rome

24 °C

Poco Nuvoloso

Temp. 24 Ore

17 °C

30 °C

Nord

3.7 Km/h

Dew point 19 °C

Umidità 73 %

Visibilità  10 Km

Il sole sorge alle ore 06:05

Il sole tramonta alle ore 20:39

Data e Ora Cielo e Fenomeni T °C DP °C Um. % Pres. hPa Vis. km Vento km/h
Ieri h: 22:50 poco_nuvoloso Poco Nuvoloso 24 19 73 1018 10 N 3.7
Ieri h: 22:20 sereno Sereno 23 19 78 1018 10 N 3.7
Ieri h: 21:50 sereno Sereno 24 19 73 1017 10 N 3.7
Ieri h: 21:20 poco_nuvoloso Poco Nuvoloso 25 19 69 1017 10 N 5.5
Ieri h: 20:50 sereno Sereno 26 19 65 1017 10 N 5.5
Ieri h: 20:20 sereno Sereno 27 19 61 1017 10 N 5.5
Ieri h: 19:50 poco_nuvoloso Poco Nuvoloso 28 19 58 1016 10 N 5.5
Ieri h: 19:20 poco_nuvoloso Poco Nuvoloso 28 18 54 1016 10 N 5.5
Ieri h: 18:50 poco_nuvoloso Poco Nuvoloso 28 18 54 1016 10 S/SE 7.4
Ieri h: 18:20 sereno Sereno 29 17 48 1016 10 SE 9.3
Ieri h: 17:50 sereno Sereno 30 17 45 1016 10 SE 7.4
Ieri h: 16:50 poco_nuvoloso Poco Nuvoloso 30 17 45 1016 10 N 5.5
Ieri h: 16:20 poco_nuvoloso Poco Nuvoloso 29 16 45 1016 10 E/SE 11.1
Ieri h: 15:50 poco_nuvoloso Poco Nuvoloso 30 16 42 1016 10 SE 9.3
Ieri h: 15:20 poco_nuvoloso Poco Nuvoloso 30 15 40 1016 10 N 7.4
Ieri h: 14:50 poco_nuvoloso Poco Nuvoloso 29 16 45 1016 10 E/SE 7.4
Ieri h: 14:20 poco_nuvoloso Poco Nuvoloso 29 16 45 1016 10 SO 7.4
Ieri h: 13:50 sereno Sereno 29 16 45 1016 10 O/SO 9.3
Ieri h: 13:20 sereno Sereno 29 16 45 1016 10 S 7.4
Ieri h: 12:50 sereno Sereno 28 16 48 1016 10 SO 11.1
Ieri h: 12:20 sereno Sereno 29 15 42 1016 10 S/SE 7.4
Ieri h: 11:50 sereno Sereno 28 14 42 1016 10 S 7.4
Ieri h: 11:20 sereno Sereno 28 17 51 1016 10 N 5.5
Ieri h: 10:50 sereno Sereno 27 16 50 1016 10 N 5.5
Ieri h: 10:20 sereno Sereno 26 16 54 1016 10 O 7.4
Ieri h: 09:50 sereno Sereno 25 16 57 1016 10 O 7.4
Ieri h: 09:20 sereno Sereno 24 16 60 1016 10 N 5.5
Ieri h: 08:50 sereno Sereno 23 16 64 1016 10 O/NO 9.3
Ieri h: 08:20 sereno Sereno 22 16 68 1016 10 O 11.1
Ieri h: 07:50 sereno Sereno 20 16 77 1016 10 N 5.5
Ieri h: 07:20 sereno Sereno 19 15 77 1016 10 O/NO 7.4
Ieri h: 06:50 sereno Sereno 18 16 88 1015 10 O 11.1
Ieri h: 06:20 sereno Sereno 17 15 88 1016 10 O 9.3
Ieri h: 05:50 sereno Sereno 17 15 88 1016 10 N 5.5
Ieri h: 05:20 sereno Sereno 17 15 88 1016 10 N 5.5
Ieri h: 04:50 sereno Sereno 17 15 88 1015 10 NO 7.4
Ieri h: 04:20 sereno Sereno 17 16 93 1016 10 O/NO 7.4
Ieri h: 03:50 sereno Sereno 17 16 93 1016 10 O/NO 7.4